DELTA 1 DEB, 7177

Orbit data source: Space-Track

DELTA 1 DEB, 7177 is space debris in SSO originally from a launch on Tue, 06 Nov 1973 UTC launched from the Air Force Western Test Range (AFWTR). Debris objects in space refer to the collection of defunct objects orbiting the Earth. Examples of debris include non-operational satellites, rocket bodies, and fragments generated from explosions, collisions, or faulty payload assembly.

Loading next visibility...
Identifier
7177, 1973-086EP
Orbit
SSO
Country
Flag of USUS
Related business
Manufacturer
Unknown
Mission
Spacecraft
Bus & Motor
Unknown
Mass
Unknown
Launch date (UTC)
1973-11-06 (53 years ago)
Launch vehicle
Unknown
Launch site
Air Force Western Test Range (AFWTR)
Object type
Payload
Rocket body
Debris
Shape & HBR
Unknown shape, 0.1 m
Radar Cross Section
Medium (>0.1 m² and <1 m²)

Expand to show TLE details & history
Last TLE update: 16 hours ago

TLE from 16 hours ago
0 DELTA 1 DEB
1 07177U 73086EP  26255.04989890  .00000617  00000-0  14999-2 0  9991
2 07177 102.0375 280.3111 0241586 148.4707 279.3707 13.17158228516426
Epoch: 2026-09-12T01:11Z
TLE epoch observation values (Epoch: 2026-09-12T01:11:51.264Z)
Latitude
62.60096°
Longitude
-112.87854°
Altitude
1,180.691 km
Speed
7.281 km/s
True Right ascension
17h 04m 35s
True Declination
62° 28' 05"
Sunlit
Object was in daylight at epoch
Visualization orbit readout
Latitude
Unknown
Longitude
Unknown
Altitude
Unknown
Speed
Unknown
Apparent Right ascension
Unknown
Apparent Declination
Unknown
Sunlit
N/A
Visualization observer readout
Local Sidereal Time
09:23:07
Azimuth
Unknown
Elevation
Unknown
Doppler factor
Unknown
Orbital elements
Apogee altitude
1,375.979 km
Perigee altitude
1,010.159 km
Semi-major axis
7,571.206 km
Eccentricity
0.02416
Inclination
102.0375°
RAAN
280.3111°
Arg. of periapsis
148.4707°
True anomaly
276.62683°
Mean anomaly
279.3707°
Eccentric anomaly
277.99998°
Mean motion
3.29455 °/min
Orbital period
109.27 mins
BSTAR
0.0014999
Loading maneuver chart data...
Computing Atmospheric mass density...
Loading historical data...
Loading historical data...
Loading historical data...
Loading historical data...
Loading historical data...
Loading historical data...
Loading historical data...

Documentation

Showing up to 5 results
|